CW4869 Weather Reports


Display with metric or nautical units.
time (UTC)temp
F
wind
direction
speed
MPH
gust
MPH
rain 1hr
in
rain 24hr
in
rain mn
in
humidity
%
barometer
mb
20260901085525 73 241 8.0 11.0 0.00 0.96 0.00 94 1011.1
20260901085037 73 246 9.0 12.0 0.00 0.96 0.00 93 1011.1
20260901084527 73 231 9.0 12.0 0.00 0.96 0.00 93 1011.1
20260901084101 73 237 9.0 11.0 0.00 0.96 0.00 93 1011.1
20260901083554 73 232 9.0 12.0 0.00 0.96 0.00 93 1011.1
20260901083049 73 237 9.0 11.0 0.00 0.96 0.00 93 1011.1
20260901082557 73 240 9.0 11.0 0.00 0.96 0.00 93 1011.0
20260901082031 73 244 8.0 11.0 0.00 0.96 0.00 93 1011.0
20260901081546 73 253 7.0 9.0 0.00 0.96 0.00 93 1011.1
20260901081040 73 247 6.0 8.0 0.00 0.96 0.00 93 1011.1
20260901080526 73 237 7.0 8.0 0.00 0.96 0.00 92 1010.9
20260901080040 73 252 6.0 7.0 0.00 0.96 0.00 92 1010.8
20260901075523 73 252 3.0 8.0 0.00 0.96 0.00 92 1010.8
20260901075037 73 274 3.0 8.0 0.00 0.96 0.00 92 1010.8
20260901074526 73 272 5.0 7.0 0.00 0.96 0.00 92 1010.9
20260901074040 73 278 4.0 7.0 0.00 0.96 0.00 92 1011.0
20260901073553 73 288 4.0 7.0 0.00 0.96 0.00 92 1010.9
20260901073024 73 264 5.0 9.0 0.00 0.96 0.00 92 1011.0
20260901072523 73 264 7.0 10.0 0.00 0.96 0.00 92 1011.1
20260901072030 73 264 8.0 10.0 0.00 0.96 0.00 92 1011.1
20260901071538 73 241 9.0 10.0 0.00 0.96 0.00 92 1011.2
20260901071031 73 258 8.0 10.0 0.00 0.96 0.00 92 1011.2
20260901070533 73 244 8.0 10.0 0.00 0.96 0.00 92 1011.2
20260901070050 73 236 8.0 10.0 0.00 0.96 0.00 91 1011.2
20260901065538 73 254 6.0 8.0 0.00 0.96 0.00 91 1011.2
20260901065029 74 259 5.0 8.0 0.00 0.96 0.00 91 1011.2
20260901064558 74 248 3.0 9.0 0.00 0.96 0.00 91 1011.1
20260901064101 74 247 4.0 8.0 0.00 0.96 0.00 91 1011.0
20260901063610 74 245 5.0 7.0 0.00 0.96 0.00 91 1011.0
20260901063045 74 243 6.0 9.0 0.00 0.96 0.00 91 1010.9
20260901062532 74 235 6.0 9.0 0.00 0.96 0.00 91 1011.0
20260901062035 74 236 7.0 10.0 0.00 0.96 0.00 91 1011.1
20260901061525 74 236 7.0 10.0 0.00 0.96 0.00 91 1011.2
20260901061039 74 249 7.0 10.0 0.00 0.96 0.00 91 1011.2
20260901060528 74 238 7.0 11.0 0.00 0.96 0.00 90 1011.2
20260901060036 74 237 8.0 11.0 0.00 0.96 0.00 90 1011.1
20260901055547 74 236 8.0 10.0 0.00 0.96 0.00 90 1011.2
20260901055041 74 233 8.0 12.0 0.00 0.96 0.00 90 1011.1
20260901054035 74 234 9.0 12.0 0.00 0.96 0.00 90 1011.1
20260901053525 74 235 9.0 11.0 0.00 0.96 0.00 90 1011.1
20260901053035 74 237 9.0 12.0 0.00 0.96 0.00 90 1011.1
20260901052538 74 238 9.0 12.0 0.00 0.96 0.00 89 1011.0
20260901052032 74 238 9.0 12.0 0.00 0.96 0.00 89 1011.1
20260901051538 74 246 10.0 14.0 0.00 0.96 0.00 89 1011.1
20260901051047 74 228 11.0 14.0 0.00 0.96 0.00 89 1011.1
20260901050534 75 238 11.0 13.0 0.00 0.96 0.00 88 1011.0
20260901050025 75 235 10.0 14.0 0.00 0.96 0.00 88 1011.0
20260901045553 75 230 11.0 14.0 0.00 0.96 0.00 88 1011.0
20260901045045 75 232 11.0 14.0 0.00 0.96 0.00 88 1011.0
20260901044532 75 238 12.0 17.0 0.00 0.96 0.00 88 1011.2
20260901044045 75 230 13.0 17.0 0.00 0.96 0.00 88 1011.1
20260901043538 75 237 13.0 17.0 0.00 0.96 0.00 87 1011.1
20260901043027 75 231 13.0 18.0 0.00 0.96 0.00 87 1011.2
20260901042555 75 236 14.0 18.0 0.00 0.96 0.00 87 1011.1
20260901042027 75 237 12.0 18.0 0.00 0.96 0.00 87 1011.1
20260901041535 75 237 13.0 19.0 0.00 0.96 0.00 86 1011.1
20260901041026 75 230 15.0 19.0 0.00 0.96 0.00 86 1011.2
20260901040531 75 228 13.0 18.0 0.00 0.96 0.00 86 1011.1
20260901040043 75 234 14.0 19.0 0.00 0.96 0.00 86 1011.1
20260901035521 75 231 14.0 19.0 0.00 0.96 0.96 86 1011.2
20260901035031 75 239 14.0 19.0 0.00 0.96 0.96 86 1011.1
20260901034541 75 231 15.0 19.0 0.00 0.96 0.96 86 1011.1
20260901034033 75 229 14.0 19.0 0.00 0.96 0.96 87 1011.1
20260901033524 75 225 15.0 17.0 0.00 0.96 0.96 87 1011.2
20260901033034 74 225 11.0 14.0 0.00 0.96 0.96 89 1011.3
20260901032524 74 225 10.0 13.0 0.00 0.96 0.96 89 1011.4
20260901032035 74 225 9.0 13.0 0.00 0.96 0.96 89 1011.2
20260901031522 74 223 9.0 12.0 0.00 0.96 0.96 89 1011.1
20260901031040 74 221 9.0 12.0 0.00 0.96 0.96 89 1011.0
20260901030529 75 216 10.0 13.0 0.00 0.96 0.96 89 1010.9
20260901030038 74 215 10.0 13.0 0.00 0.96 0.96 89 1010.8
20260901025527 74 214 10.0 12.0 0.00 0.96 0.96 89 1010.8
20260901025055 74 212 10.0 13.0 0.00 0.96 0.96 89 1011.0
20260901024522 74 216 9.0 13.0 0.00 0.96 0.96 89 1011.1
20260901024031 74 216 10.0 13.0 0.00 0.96 0.96 89 1011.2
20260901023529 74 208 10.0 12.0 0.00 0.96 0.96 89 1011.1
20260901023042 74 213 10.0 12.0 0.00 0.96 0.96 90 1011.1
20260901022525 74 208 10.0 13.0 0.00 0.96 0.96 90 1011.1
20260901021541 74 212 9.0 14.0 0.00 0.96 0.96 90 1011.2
20260901021029 74 214 10.0 14.0 0.00 0.96 0.96 90 1011.3
20260901020540 74 209 9.0 10.0 0.00 0.96 0.96 90 1011.2
20260901020034 74 216 8.0 9.0 0.00 0.96 0.96 90 1011.3
20260901015539 74 222 7.0 10.0 0.00 0.96 0.96 91 1011.3
20260901015026 74 221 8.0 10.0 0.00 0.96 0.96 91 1011.3
20260901014536 74 208 8.0 12.0 0.00 0.96 0.96 91 1011.2
20260901014046 74 212 8.0 12.0 0.00 0.96 0.96 90 1011.2
20260901013529 74 216 10.0 12.0 0.00 0.96 0.96 91 1011.2
20260901013042 74 215 9.0 11.0 0.00 0.96 0.96 91 1011.1
20260901012530 74 212 7.0 10.0 0.00 0.96 0.96 91 1011.1
20260901012041 74 214 8.0 10.0 0.00 0.96 0.96 91 1011.1
20260901011527 74 201 8.0 10.0 0.00 0.96 0.96 91 1011.0
20260901011042 74 211 8.0 10.0 0.00 0.96 0.96 91 1011.0
20260901010533 74 202 8.0 11.0 0.00 0.96 0.96 92 1010.9
20260901010024 74 202 9.0 11.0 0.00 0.96 0.96 92 1010.9
20260901005528 74 192 8.0 9.0 0.00 0.96 0.96 93 1010.9
20260901005038 74 191 8.0 9.0 0.00 0.96 0.96 93 1010.8
20260901004527 74 191 6.0 8.0 0.00 0.96 0.96 93 1010.8
20260901004037 74 189 4.0 6.0 0.00 0.96 0.96 93 1010.8
20260901003525 74 219 5.0 5.0 0.00 0.96 0.96 93 1010.8
20260901003037 75 209 4.0 6.0 0.00 0.96 0.96 92 1010.7
20260901002549 75 217 5.0 6.0 0.00 0.96 0.96 92 1010.7
20260901002037 75 223 4.0 6.0 0.00 0.96 0.96 92 1010.8
20260901001525 75 221 4.0 5.0 0.00 0.96 0.96 92 1010.8
20260901001039 75 217 4.0 7.0 0.00 0.96 0.96 92 1010.8
20260901000547 75 188 5.0 7.0 0.00 0.96 0.96 91 1010.8
20260901000037 75 190 5.0 7.0 0.00 0.96 0.96 91 1010.8
20260831235525 75 188 6.0 7.0 0.00 0.96 0.96 91 1010.8
20260831235038 76 179 7.0 8.0 0.00 0.96 0.96 90 1010.7
20260831234531 76 178 7.0 9.0 0.00 0.96 0.96 90 1010.6
20260831234024 76 179 6.0 9.0 0.00 0.96 0.96 90 1010.6
20260831233534 76 185 7.0 9.0 0.00 0.96 0.96 90 1010.7
20260831233041 76 172 7.0 10.0 0.00 0.96 0.96 89 1010.7
20260831232531 76 193 8.0 10.0 0.00 0.96 0.96 89 1010.8
20260831232048 76 193 9.0 11.0 0.00 0.96 0.96 88 1010.7
20260831231531 76 190 8.0 12.0 0.00 0.96 0.96 88 1010.7
20260831231034 77 190 10.0 12.0 0.00 0.96 0.96 88 1010.6
20260831230547 77 192 9.0 13.0 0.00 0.96 0.96 88 1010.7
20260831230057 77 185 9.0 14.0 0.00 0.96 0.96 87 1010.6
20260831225525 77 203 12.0 14.0 0.00 0.96 0.96 87 1010.6
20260831225037 77 197 11.0 14.0 0.00 0.96 0.96 87 1010.6
20260831224541 77 187 12.0 14.0 0.00 0.96 0.96 87 1010.6
20260831224032 77 198 12.0 18.0 0.00 0.96 0.96 86 1010.7
20260831223540 77 200 12.0 17.0 0.00 0.96 0.96 87 1010.8
20260831223030 77 195 13.0 17.0 0.00 0.96 0.96 87 1010.8
20260831222536 77 199 11.0 19.0 0.00 0.96 0.96 87 1010.8
20260831222048 77 186 11.0 13.0 0.00 0.96 0.96 88 1010.8
20260831221600 77 202 10.0 14.0 0.00 0.96 0.96 88 1010.8
20260831221025 77 198 11.0 14.0 0.00 0.96 0.96 88 1010.9
20260831220532 77 210 10.0 13.0 0.00 0.96 0.96 88 1010.8
20260831220023 77 203 10.0 16.0 0.00 0.96 0.96 89 1010.8
20260831215532 77 213 11.0 16.0 0.00 0.96 0.96 89 1010.9
20260831215047 77 204 8.0 12.0 0.00 0.96 0.96 89 1011.0
20260831214533 77 199 10.0 13.0 0.00 0.96 0.96 88 1011.1
20260831214023 77 203 10.0 15.0 0.00 0.96 0.96 87 1011.1
20260831213531 77 194 10.0 15.0 0.00 0.96 0.96 87 1011.1
20260831212523 77 185 9.0 11.0 0.00 0.96 0.96 88 1011.2
20260831212034 77 193 9.0 11.0 0.00 0.96 0.96 88 1011.3
20260831211524 76 207 8.0 12.0 0.00 0.96 0.96 88 1011.3
20260831211045 76 193 10.0 12.0 0.00 0.96 0.96 88 1011.3
20260831210527 76 206 9.0 10.0 0.00 0.96 0.96 89 1011.4
20260831210039 76 208 8.0 11.0 0.00 0.96 0.96 89 1011.4
20260831205536 75 204 9.0 11.0 0.00 0.97 0.96 90 1011.4
20260831205024 75 201 8.0 9.0 0.00 0.97 0.96 91 1011.4
20260831204533 75 190 7.0 9.0 0.00 0.97 0.96 90 1011.5
20260831204026 75 207 7.0 8.0 0.00 0.97 0.96 91 1011.6
20260831203531 75 187 7.0 8.0 0.00 0.97 0.96 89 1011.7
20260831203032 75 184 5.0 6.0 0.00 0.97 0.96 89 1011.6
20260831202624 76 179 4.0 5.0 0.00 0.97 0.96 89 1011.8
20260831202036 76 149 3.0 6.0 0.00 0.97 0.96 90 1012.0
20260831201526 75 114 5.0 7.0 0.00 0.97 0.96 90 1012.0
20260831201038 75 114 5.0 7.0 0.00 0.97 0.96 90 1011.9
20260831200055 75 129 5.0 6.0 0.00 0.97 0.96 91 1011.9
20260831195522 75 135 4.0 7.0 0.00 0.97 0.96 91 1011.9
20260831195115 75 135 6.0 9.0 0.00 0.97 0.96 91 1011.8
20260831194528 74 149 8.0 10.0 0.00 0.97 0.96 92 1011.8
20260831194042 74 131 9.0 10.0 0.00 0.97 0.96 92 1011.8
20260831193527 74 139 8.0 10.0 0.00 0.97 0.96 92 1011.8
20260831193102 74 138 7.0 9.0 0.00 0.97 0.96 93 1011.9
20260831192531 74 142 7.0 9.0 0.00 0.97 0.96 93 1012.0
20260831192037 73 142 7.0 8.0 0.00 0.97 0.96 94 1012.0
20260831191609 73 152 6.0 9.0 0.00 0.97 0.96 94 1012.0
20260831191025 73 161 7.0 10.0 0.01 0.97 0.96 94 1012.2
20260831190527 73 163 8.0 13.0 0.01 0.97 0.96 94 1012.1
20260831190042 72 177 9.0 15.0 0.01 0.97 0.96 95 1012.0
20260831185529 72 185 12.0 17.0 0.01 0.97 0.96 95 1011.9
20260831185040 72 183 13.0 18.0 0.01 0.97 0.96 95 1011.8
20260831184528 72 182 13.0 17.0 0.01 0.97 0.96 96 1011.7
20260831184032 72 179 13.0 18.0 0.01 0.97 0.96 96 1011.8
20260831183537 72 173 13.0 18.0 0.01 0.97 0.96 96 1011.8
20260831183029 72 173 14.0 18.0 0.01 0.97 0.96 96 1011.8
20260831182601 72 194 13.0 17.0 0.01 0.97 0.96 96 1011.9
20260831182042 72 177 13.0 17.0 0.02 0.97 0.96 96 1011.9
20260831181531 72 189 13.0 17.0 0.01 0.96 0.95 96 1012.1
20260831181048 72 176 12.0 14.0 0.01 0.96 0.95 97 1012.1
20260831180535 71 20 2.0 2.0 0.01 0.96 0.95 96 1012.0
20260831180024 71 20 2.0 2.0 0.02 0.96 0.95 96 1012.3
20260831175556 71 20 2.0 2.0 0.03 1.93 0.95 96 1012.4
20260831175028 71 20 2.0 2.0 0.08 1.93 0.95 96 1012.6
20260831174528 71 20 2.0 2.0 0.21 1.93 0.95 96 1012.8
20260831174041 71 20 2.0 2.0 0.31 1.93 0.95 96 1013.0
20260831173529 71 20 2.0 2.0 0.33 1.93 0.95 96 1012.9
20260831173040 71 20 2.0 2.0 0.33 1.93 0.95 96 1013.0
20260831172524 71 20 2.0 2.0 0.33 1.93 0.95 96 1013.2
20260831172037 71 20 2.0 2.0 0.32 1.92 0.94 96 1013.5
20260831171534 71 20 2.0 2.0 0.32 1.92 0.94 96 1013.9
20260831171025 70 20 2.0 2.0 0.32 1.92 0.94 96 1014.3
20260831170535 71 20 2.0 2.0 0.32 1.92 0.94 96 1014.5
20260831170115 71 20 2.0 2.0 0.31 1.91 0.93 96 1014.7
20260831165543 71 20 2.0 2.0 0.29 1.92 0.91 96 1014.9
20260831165100 71 20 2.0 10.0 0.21 1.84 0.83 96 1015.7
20260831164552 71 20 3.0 12.0 0.10 1.73 0.72 96 1016.2
20260831164040 71 260 6.0 14.0 0.02 1.65 0.64 96 1015.8
20260831163529 71 248 12.0 14.0 0.00 1.63 0.62 96 1015.4
20260831163043 72 246 8.0 10.0 0.00 1.63 0.62 96 1015.2
20260831162527 72 229 7.0 8.0 0.00 1.63 0.62 96 1015.0
20260831162040 72 241 5.0 7.0 0.01 1.63 0.62 96 1014.7
20260831161527 72 241 5.0 7.0 0.02 1.63 0.62 96 1014.7
20260831161040 72 257 4.0 7.0 0.03 1.63 0.62 96 1015.0
20260831160533 72 252 4.0 8.0 0.05 1.63 0.62 96 1014.9
20260831160024 72 264 6.0 8.0 0.06 1.63 0.62 96 1014.8
20260831155534 72 15 2.0 5.0 0.06 1.63 0.62 96 1014.9
20260831155040 71 89 3.0 6.0 0.07 1.63 0.62 96 1014.9
20260831154530 71 335 4.0 7.0 0.07 1.63 0.62 96 1014.8
20260831154047 71 260 6.0 7.0 0.08 1.63 0.62 96 1014.8
20260831153531 71 255 7.0 7.0 0.09 1.63 0.62 96 1015.0
20260831153041 71 246 4.0 7.0 0.12 1.63 0.62 96 1014.9
20260831152553 71 274 3.0 11.0 0.14 1.63 0.62 96 1015.0
20260831152042 71 274 8.0 12.0 0.14 1.62 0.61 96 1014.9
20260831151527 71 250 9.0 14.0 0.17 1.61 0.60 96 1014.7
20260831151041 71 250 11.0 16.0 0.20 1.60 0.59 96 1015.0
20260831150556 71 247 14.0 16.0 0.22 1.58 0.57 96 1015.1
20260831150025 71 257 8.0 16.0 0.22 1.57 0.56 96 1015.2
20260831145534 71 265 10.0 18.0 0.22 1.58 0.56 96 1015.3
20260831145027 71 255 14.0 18.0 0.21 1.57 0.55 96 1015.3
20260831144600 71 264 10.0 17.0 0.22 1.57 0.55 96 1015.2
20260831144053 71 259 12.0 17.0 0.21 1.56 0.54 96 1015.2
20260831143540 71 255 8.0 15.0 0.20 1.55 0.53 96 1015.0
20260831143057 71 265 10.0 16.0 0.17 1.51 0.49 96 1015.1
20260831142541 71 266 12.0 17.0 0.15 1.49 0.47 96 1015.0
20260831142058 71 257 13.0 15.0 0.14 1.48 0.46 96 1015.0
20260831141526 71 266 10.0 15.0 0.10 1.44 0.42 96 1015.1
20260831141100 70 252 8.0 14.0 0.06 1.40 0.38 96 1015.0
20260831140525 70 272 11.0 14.0 0.03 1.37 0.35 96 1014.8
20260831140037 70 242 9.0 13.0 0.02 1.36 0.34 96 1014.7
20260831135525 70 274 11.0 13.0 0.02 1.36 0.34 96 1014.6
20260831135037 70 252 11.0 14.0 0.02 1.36 0.34 96 1014.6
20260831134527 70 249 12.0 15.0 0.01 1.35 0.33 96 1014.4
20260831134051 70 232 12.0 15.0 0.01 1.35 0.33 96 1014.2
20260831133535 70 225 10.0 15.0 0.01 1.35 0.33 96 1014.0
20260831133029 70 222 12.0 15.0 0.00 1.34 0.32 96 1014.0
20260831132539 70 220 11.0 14.0 0.00 1.34 0.32 96 1013.8
20260831132031 70 231 9.0 12.0 0.00 1.34 0.32 96 1013.9
20260831131539 70 233 10.0 12.0 0.00 1.34 0.32 96 1013.9
20260831131030 70 225 7.0 10.0 0.00 1.34 0.32 96 1013.7
20260831130539 70 223 7.0 10.0 0.00 1.34 0.32 96 1013.6
20260831125530 70 222 8.0 10.0 0.00 1.34 0.32 96 1013.7
20260831125022 70 230 7.0 9.0 0.00 1.34 0.32 96 1013.7
20260831124034 70 223 6.0 8.0 0.00 1.34 0.32 96 1013.4
20260831123522 70 227 6.0 7.0 0.00 1.34 0.32 96 1013.5
20260831123055 70 206 5.0 7.0 0.00 1.34 0.32 96 1013.3
20260831122535 70 227 5.0 7.0 0.00 1.34 0.32 96 1013.5
20260831122046 70 212 4.0 7.0 0.00 1.34 0.32 96 1013.4
20260831121530 70 211 4.0 5.0 0.00 1.34 0.32 96 1013.5
20260831121128 70 208 3.0 5.0 0.00 1.34 0.32 96 1013.6
20260831120521 70 226 4.0 6.0 0.00 1.34 0.32 96 1013.9
20260831120031 70 222 4.0 7.0 0.00 1.34 0.32 96 1013.8
20260831115539 70 218 4.0 8.0 0.00 1.34 0.32 96 1013.7
20260831115028 70 211 6.0 9.0 0.00 1.34 0.32 96 1013.7
20260831114533 70 214 7.0 9.0 0.00 1.34 0.32 96 1013.7
20260831114048 70 213 5.0 8.0 0.00 1.34 0.32 96 1013.7
20260831113536 70 213 6.0 8.0 0.01 1.34 0.32 96 1013.5
20260831113029 70 210 5.0 9.0 0.01 1.34 0.32 96 1013.5
20260831112536 70 220 6.0 11.0 0.02 1.34 0.32 96 1013.5
20260831112111 70 220 9.0 11.0 0.02 1.34 0.32 96 1013.4
20260831111523 70 228 7.0 9.0 0.02 1.34 0.32 96 1013.4
20260831111029 70 219 8.0 9.0 0.02 1.34 0.32 96 1013.4
20260831110539 70 219 7.0 9.0 0.02 1.34 0.32 95 1013.4
20260831110032 70 225 7.0 8.0 0.03 1.34 0.32 95 1013.5
20260831105535 70 230 6.0 9.0 0.04 1.34 0.32 95 1013.5
20260831105028 70 235 6.0 10.0 0.04 1.34 0.32 95 1013.4
20260831104536 70 210 6.0 11.0 0.05 1.34 0.32 95 1013.5
20260831104028 70 206 9.0 13.0 0.05 1.34 0.32 95 1013.4
20260831103556 70 221 9.0 11.0 0.04 1.33 0.31 95 1013.4
20260831103046 70 211 8.0 11.0 0.05 1.32 0.30 95 1013.5
20260831102552 70 218 9.0 11.0 0.11 1.32 0.30 95 1013.7
20260831102102 70 213 8.0 10.0 0.20 1.32 0.30 95 1013.7
20260831101528 70 214 8.0 12.0 0.21 1.32 0.30 95 1013.7
20260831101039 70 223 10.0 12.0 0.24 1.32 0.30 95 1013.7
20260831100524 70 239 8.0 12.0 0.27 1.32 0.30 95 1014.1
20260831100037 70 233 9.0 12.0 0.28 1.31 0.29 95 1014.1
20260831095528 70 226 9.0 11.0 0.28 1.30 0.28 95 1014.0
20260831095041 70 231 8.0 10.0 0.28 1.30 0.28 95 1014.1
20260831094526 70 240 7.0 11.0 0.27 1.29 0.27 95 1014.1
20260831094040 70 231 7.0 12.0 0.27 1.29 0.27 95 1014.0
20260831093531 70 209 9.0 12.0 0.26 1.28 0.26 95 1013.7
20260831093023 71 211 7.0 10.0 0.25 1.27 0.25 94 1013.8
20260831092526 71 203 8.0 16.0 0.17 1.19 0.17 94 1013.9
20260831092038 71 244 12.0 18.0 0.10 1.12 0.10 94 1014.2
20260831091527 71 245 13.0 18.0 0.08 1.10 0.08 94 1014.4
20260831091035 71 239 14.0 18.0 0.05 1.07 0.05 94 1014.4
20260831090526 71 229 14.0 16.0 0.03 1.05 0.03 94 1014.4
20260831090035 71 228 11.0 15.0 0.00 1.02 0.00 94 1014.4